Вернуться в каталог

STARLINK-35108

АктивенСвязьVLEO
NORAD 65738·PAYLOAD·🇺🇸 United States

Запущен Sep 25, 2025 с Cape Canaveral Space Force Station

Loading…

Ближайшие Пролёты (ближайшие 24 часа)

TLE

СвежийSource: CelesTrak SupGP

Эпоха: Sep 14, 2026, 21:31 UTC

1 65738C 25216E   26257.89701389 -.00028446  00000+0 -84001-3 0  2570
2 65738  53.1571 172.1667 0001328 100.2597  79.2042 15.34421170    14

Отслеживайте STARLINK-35108 в реальном времени с AllMySat

Download on the App Store